sat.trackr.live / text

‹ back to catalog

BRITE-AUSTRIA

NORAD 39091 · 2013-009F

PAYLOAD ACTIVE UNKNOWN

§ Identity

Operator
Country
ASRA
Launch date
2013-02-25
Launch site
SRILR
Launch vehicle
Mass (kg)
RCS (m²)
0.10

Purposes: science, tech_demo

External: N2YO · Heavens-Above · Gunter

§ Orbital elements

Epoch: 2026-09-19T17:23:23.358624Z

Period
100.24 min
Inclination
98.4048°
Eccentricity
0.0009442
Mean motion
14.36572650 rev/d
Perigee alt
763.1 km
Apogee alt
776.6 km
Semi-major
7,148.0 km
B*
4.7116e-5
RAAN
79.8578°
Arg perigee
323.6501°
Mean anomaly
36.4043°
Rev number
71,062

§ Raw data

BRITE-AUSTRIA1 39091U 13009F   26262.72457591  .00000096  00000+0  47116-4 0  99902 39091  98.4048  79.8578 0009442 323.6501  36.4043 14.36572650710625

JSON: /api/v1/satellites/39091 · /tle

For live sub-satellite position, see the globe view (requires WebGL).

§ Visibility from observer

Set your observer location to see the next 7 days of passes ≥ 10°. The values pass through the URL so the page stays shareable.

No JS? Fill the form by hand. The geolocation button needs JavaScript.

§ Radio — SatNOGS DB

ModeDescriptionDownlinkUplink
BPSK Mode S - Telemetry (inactive) 2.234 GHz

1 transmitter · refreshed weekly from db.satnogs.org